Time,TemperatureF,DewpointF,PressureIn,WindDirection,WindDirectionDegrees,WindSpeedMPH,WindSpeedGustMPH,Humidity,HourlyPrecipIn,Conditions,Clouds,dailyrainin,SolarRadiationWatts/m^2,SoftwareType,DateUTC
2013-06-05 00:02:00,64.0,63.0,-100.00,WNW,299,0.0,0.0,98,0.00,,,0.00,0.000000,,2013-06-05 05:02:00,
2013-06-05 00:32:00,65.0,63.0,-100.00,North,11,2.0,3.0,94,0.00,,,0.00,0.000000,,2013-06-05 05:32:00,
2013-06-05 00:42:00,65.0,63.0,-100.00,North,11,2.0,3.0,94,0.00,,,0.00,0.000000,,2013-06-05 05:42:00,
2013-06-05 00:52:00,65.0,63.0,-100.00,North,11,2.0,3.0,94,0.00,,,0.00,0.000000,,2013-06-05 05:52:00,
2013-06-05 01:02:00,65.0,63.0,-100.00,North,11,2.0,3.0,94,0.00,,,0.00,0.000000,,2013-06-05 06:02:00,
2013-06-05 01:32:00,62.0,62.0,-100.00,SW,214,0.0,2.0,100,0.00,,,0.00,0.000000,,2013-06-05 06:32:00,
2013-06-05 01:42:00,62.0,62.0,-100.00,SW,214,0.0,2.0,100,0.00,,,0.00,0.000000,,2013-06-05 06:42:00,
2013-06-05 01:52:00,62.0,62.0,-100.00,SW,214,0.0,2.0,100,0.00,,,0.00,0.000000,,2013-06-05 06:52:00,
2013-06-05 02:02:00,62.0,62.0,-100.00,SW,214,0.0,2.0,100,0.00,,,0.00,0.000000,,2013-06-05 07:02:00,
2013-06-05 02:32:00,62.0,62.0,-100.00,WSW,240,0.0,0.0,100,0.00,,,0.00,0.000000,,2013-06-05 07:32:00,
2013-06-05 02:42:00,62.0,62.0,-100.00,WSW,240,0.0,0.0,100,0.00,,,0.00,0.000000,,2013-06-05 07:42:00,
2013-06-05 02:52:00,62.0,62.0,-100.00,WSW,240,0.0,0.0,100,0.00,,,0.00,0.000000,,2013-06-05 07:52:00,
2013-06-05 03:02:00,62.0,62.0,-100.00,WSW,240,0.0,0.0,100,0.00,,,0.00,0.000000,,2013-06-05 08:02:00,
2013-06-05 03:32:00,61.0,61.0,-100.00,SSW,212,0.0,0.0,100,0.00,,,0.00,0.000000,,2013-06-05 08:32:00,
2013-06-05 03:42:00,61.0,61.0,-100.00,SSW,212,0.0,0.0,100,0.00,,,0.00,0.000000,,2013-06-05 08:42:00,
2013-06-05 03:52:00,61.0,61.0,-100.00,SSW,212,0.0,0.0,100,0.00,,,0.00,0.000000,,2013-06-05 08:52:00,
2013-06-05 04:02:00,61.0,61.0,-100.00,SSW,212,0.0,0.0,100,0.00,,,0.00,0.000000,,2013-06-05 09:02:00,
2013-06-05 04:33:00,60.0,60.0,-100.00,East,87,0.0,0.0,100,0.00,,,0.00,0.000000,,2013-06-05 09:33:00,
2013-06-05 04:43:00,60.0,60.0,-100.00,East,87,0.0,0.0,100,0.00,,,0.00,0.000000,,2013-06-05 09:43:00,
2013-06-05 04:53:00,60.0,60.0,-100.00,East,87,0.0,0.0,100,0.00,,,0.00,0.000000,,2013-06-05 09:53:00,
2013-06-05 05:03:00,60.0,60.0,-100.00,East,87,0.0,0.0,100,0.00,,,0.00,0.000000,,2013-06-05 10:03:00,
2013-06-05 05:33:00,60.0,60.0,-100.00,South,175,0.0,0.0,100,0.00,,,0.00,0.000000,,2013-06-05 10:33:00,
2013-06-05 05:43:00,60.0,60.0,-100.00,South,175,0.0,0.0,100,0.00,,,0.00,0.000000,,2013-06-05 10:43:00,
2013-06-05 05:53:00,60.0,60.0,-100.00,South,175,0.0,0.0,100,0.00,,,0.00,0.000000,,2013-06-05 10:53:00,
2013-06-05 06:02:00,60.0,60.0,-100.00,South,175,0.0,0.0,100,0.00,,,0.00,0.000000,,2013-06-05 11:02:00,
2013-06-05 06:33:00,61.0,61.0,-100.00,ENE,77,0.0,0.0,100,0.00,,,0.00,12.000000,,2013-06-05 11:33:00,
2013-06-05 06:42:00,61.0,61.0,-100.00,ENE,77,0.0,0.0,100,0.00,,,0.00,12.000000,,2013-06-05 11:42:00,
2013-06-05 06:52:00,61.0,61.0,-100.00,ENE,77,0.0,0.0,100,0.00,,,0.00,12.000000,,2013-06-05 11:52:00,
2013-06-05 07:02:00,61.0,61.0,-100.00,ENE,77,0.0,0.0,100,0.00,,,0.00,12.000000,,2013-06-05 12:02:00,
2013-06-05 07:32:00,63.0,63.0,-100.00,East,91,0.0,2.0,100,0.00,,,0.00,60.000000,,2013-06-05 12:32:00,
2013-06-05 07:44:00,63.0,63.0,-100.00,East,91,0.0,2.0,100,0.00,,,0.00,60.000000,,2013-06-05 12:44:00,
2013-06-05 07:52:00,63.0,63.0,-100.00,East,91,0.0,2.0,100,0.00,,,0.00,60.000000,,2013-06-05 12:52:00,
2013-06-05 08:02:00,63.0,63.0,-100.00,East,91,0.0,2.0,100,0.00,,,0.00,60.000000,,2013-06-05 13:02:00,
2013-06-05 08:33:00,69.0,68.0,-100.00,NE,47,1.0,3.0,97,0.00,,,0.00,138.000000,,2013-06-05 13:33:00,
2013-06-05 08:42:00,69.0,68.0,-100.00,NE,47,1.0,3.0,97,0.00,,,0.00,138.000000,,2013-06-05 13:42:00,
2013-06-05 08:52:00,69.0,68.0,-100.00,NE,47,1.0,3.0,97,0.00,,,0.00,138.000000,,2013-06-05 13:52:00,
2013-06-05 09:02:00,69.0,68.0,-100.00,NE,47,1.0,3.0,97,0.00,,,0.00,138.000000,,2013-06-05 14:02:00,
2013-06-05 09:32:00,76.0,68.0,-100.00,SSW,196,2.0,5.0,77,0.00,,,0.00,372.000000,,2013-06-05 14:32:00,
2013-06-05 09:42:00,76.0,68.0,-100.00,SSW,196,2.0,5.0,77,0.00,,,0.00,372.000000,,2013-06-05 14:42:00,
2013-06-05 09:52:00,76.0,68.0,-100.00,SSW,196,2.0,5.0,77,0.00,,,0.00,372.000000,,2013-06-05 14:52:00,
2013-06-05 10:02:00,76.0,68.0,-100.00,SSW,196,2.0,5.0,77,0.00,,,0.00,372.000000,,2013-06-05 15:02:00,
2013-06-05 10:33:00,75.0,68.0,-100.00,WSW,248,2.0,4.0,79,0.00,,,0.00,200.000000,,2013-06-05 15:33:00,
2013-06-05 10:43:00,75.0,68.0,-100.00,WSW,248,2.0,4.0,79,0.00,,,0.00,200.000000,,2013-06-05 15:43:00,
2013-06-05 10:53:00,75.0,68.0,-100.00,WSW,248,2.0,4.0,79,0.00,,,0.00,200.000000,,2013-06-05 15:53:00,
2013-06-05 11:03:00,75.0,68.0,-100.00,WSW,248,2.0,4.0,79,0.00,,,0.00,200.000000,,2013-06-05 16:03:00,
2013-06-05 11:32:00,74.0,66.0,-100.00,SSW,200,3.0,7.0,77,0.00,,,0.00,194.000000,,2013-06-05 16:32:00,
2013-06-05 11:42:00,74.0,66.0,-100.00,SSW,200,3.0,7.0,77,0.00,,,0.00,194.000000,,2013-06-05 16:42:00,
2013-06-05 11:54:00,74.0,66.0,-100.00,SSW,200,3.0,7.0,77,0.00,,,0.00,194.000000,,2013-06-05 16:54:00,
2013-06-05 12:02:00,74.0,66.0,-100.00,SSW,200,3.0,7.0,77,0.00,,,0.00,194.000000,,2013-06-05 17:02:00,
2013-06-05 12:33:00,75.0,69.0,-100.00,SSW,209,3.0,7.0,82,0.00,,,0.00,280.000000,,2013-06-05 17:33:00,
2013-06-05 12:43:00,75.0,69.0,-100.00,SSW,209,3.0,7.0,82,0.00,,,0.00,280.000000,,2013-06-05 17:43:00,
2013-06-05 12:52:00,75.0,69.0,-100.00,SSW,209,3.0,7.0,82,0.00,,,0.00,280.000000,,2013-06-05 17:52:00,
2013-06-05 13:02:00,75.0,69.0,-100.00,SSW,209,3.0,7.0,82,0.00,,,0.00,280.000000,,2013-06-05 18:02:00,
2013-06-05 13:32:00,74.0,71.0,-100.00,South,169,3.0,7.0,90,0.01,,,0.01,229.000000,,2013-06-05 18:32:00,
2013-06-05 13:42:00,74.0,71.0,-100.00,South,169,3.0,7.0,90,0.01,,,0.01,229.000000,,2013-06-05 18:42:00,
2013-06-05 13:52:00,74.0,71.0,-100.00,South,169,3.0,7.0,90,0.01,,,0.01,229.000000,,2013-06-05 18:52:00,
2013-06-05 14:02:00,74.0,71.0,-100.00,South,169,3.0,7.0,90,0.01,,,0.01,229.000000,,2013-06-05 19:02:00,
2013-06-05 14:32:00,76.0,72.0,-100.00,South,180,4.0,7.0,87,0.00,,,0.01,328.000000,,2013-06-05 19:32:00,
2013-06-05 14:42:00,76.0,72.0,-100.00,South,180,4.0,7.0,87,0.00,,,0.01,328.000000,,2013-06-05 19:42:00,
2013-06-05 14:53:00,76.0,72.0,-100.00,South,180,4.0,7.0,87,0.00,,,0.01,328.000000,,2013-06-05 19:53:00,
2013-06-05 15:02:00,76.0,72.0,-100.00,South,180,4.0,7.0,87,0.00,,,0.01,328.000000,,2013-06-05 20:02:00,
2013-06-05 15:32:00,77.0,71.0,-100.00,SW,221,3.0,7.0,83,0.00,,,0.01,326.000000,,2013-06-05 20:32:00,
2013-06-05 15:42:00,77.0,71.0,-100.00,SW,221,3.0,7.0,83,0.00,,,0.01,326.000000,,2013-06-05 20:42:00,
2013-06-05 15:52:00,77.0,71.0,-100.00,SW,221,3.0,7.0,83,0.00,,,0.01,326.000000,,2013-06-05 20:52:00,
2013-06-05 16:02:00,77.0,71.0,-100.00,SW,221,3.0,7.0,83,0.00,,,0.01,326.000000,,2013-06-05 21:02:00,
2013-06-05 16:33:00,79.0,69.0,-100.00,SSW,212,4.0,9.0,71,0.00,,,0.01,586.000000,,2013-06-05 21:33:00,
2013-06-05 16:43:00,79.0,69.0,-100.00,SSW,212,4.0,9.0,71,0.00,,,0.01,586.000000,,2013-06-05 21:43:00,
2013-06-05 16:53:00,79.0,69.0,-100.00,SSW,212,4.0,9.0,71,0.00,,,0.01,586.000000,,2013-06-05 21:53:00,
2013-06-05 17:02:00,79.0,69.0,-100.00,SSW,212,4.0,9.0,71,0.00,,,0.01,586.000000,,2013-06-05 22:02:00,
2013-06-05 17:33:00,80.0,69.0,-100.00,SSW,196,3.0,8.0,70,0.00,,,0.01,452.000000,,2013-06-05 22:33:00,
2013-06-05 17:43:00,80.0,69.0,-100.00,SSW,196,3.0,8.0,70,0.00,,,0.01,452.000000,,2013-06-05 22:43:00,
2013-06-05 17:53:00,80.0,69.0,-100.00,SSW,196,3.0,8.0,70,0.00,,,0.01,452.000000,,2013-06-05 22:53:00,
2013-06-05 18:02:00,80.0,69.0,-100.00,SSW,196,3.0,8.0,70,0.00,,,0.01,452.000000,,2013-06-05 23:02:00,
2013-06-05 18:32:00,79.0,69.0,-100.00,SSW,196,3.0,9.0,72,0.00,,,0.01,305.000000,,2013-06-05 23:32:00,
2013-06-05 18:42:00,79.0,69.0,-100.00,SSW,196,3.0,9.0,72,0.00,,,0.01,305.000000,,2013-06-05 23:42:00,
2013-06-05 18:53:00,79.0,69.0,-100.00,SSW,196,3.0,9.0,72,0.00,,,0.01,305.000000,,2013-06-05 23:53:00,
2013-06-05 19:02:00,79.0,69.0,-100.00,SSW,196,3.0,9.0,72,0.00,,,0.01,305.000000,,2013-06-06 00:02:00,
2013-06-05 19:32:00,78.0,69.0,-100.00,South,174,3.0,7.0,75,0.00,,,0.01,181.000000,,2013-06-06 00:32:00,
2013-06-05 19:43:00,78.0,69.0,-100.00,South,174,3.0,7.0,75,0.00,,,0.01,181.000000,,2013-06-06 00:43:00,
2013-06-05 19:52:00,78.0,69.0,-100.00,South,174,3.0,7.0,75,0.00,,,0.01,181.000000,,2013-06-06 00:52:00,
2013-06-05 20:02:00,78.0,69.0,-100.00,South,174,3.0,7.0,75,0.00,,,0.01,181.000000,,2013-06-06 01:02:00,
2013-06-05 20:32:00,72.0,70.0,-100.00,SSE,156,0.0,5.0,92,0.00,,,0.01,24.000000,,2013-06-06 01:32:00,
2013-06-05 20:42:00,72.0,70.0,-100.00,SSE,156,0.0,5.0,92,0.00,,,0.01,24.000000,,2013-06-06 01:42:00,
2013-06-05 20:53:00,72.0,70.0,-100.00,SSE,156,0.0,5.0,92,0.00,,,0.01,24.000000,,2013-06-06 01:53:00,
2013-06-05 21:02:00,72.0,70.0,-100.00,SSE,156,0.0,5.0,92,0.00,,,0.01,24.000000,,2013-06-06 02:02:00,
2013-06-05 21:32:00,70.0,70.0,-100.00,SE,143,1.0,4.0,100,0.00,,,-99.99,0.000000,,2013-06-06 02:32:00,
2013-06-05 21:42:00,70.0,70.0,-100.00,SE,143,1.0,4.0,100,0.00,,,-99.99,0.000000,,2013-06-06 02:42:00,
2013-06-05 21:52:00,70.0,70.0,-100.00,SE,143,1.0,4.0,100,0.00,,,-99.99,0.000000,,2013-06-06 02:52:00,
2013-06-05 22:02:00,70.0,70.0,-100.00,SE,143,1.0,4.0,100,0.00,,,-99.99,0.000000,,2013-06-06 03:02:00,
2013-06-05 22:33:00,69.0,69.0,-100.00,SSE,158,2.0,4.0,100,0.00,,,0.01,0.000000,,2013-06-06 03:33:00,
2013-06-05 22:43:00,69.0,69.0,-100.00,SSE,158,2.0,4.0,100,0.00,,,0.01,0.000000,,2013-06-06 03:43:00,
2013-06-05 22:53:00,69.0,69.0,-100.00,SSE,158,2.0,4.0,100,0.00,,,0.01,0.000000,,2013-06-06 03:53:00,
2013-06-05 23:03:00,69.0,69.0,-100.00,SSE,158,2.0,4.0,100,0.00,,,0.01,0.000000,,2013-06-06 04:03:00,
2013-06-05 23:33:00,69.0,69.0,-100.00,South,191,1.0,4.0,100,0.00,,,0.01,0.000000,,2013-06-06 04:33:00,
2013-06-05 23:42:00,69.0,69.0,-100.00,South,191,1.0,4.0,100,0.00,,,0.01,0.000000,,2013-06-06 04:42:00,
2013-06-05 23:53:00,69.0,69.0,-100.00,South,191,1.0,4.0,100,0.00,,,0.01,0.000000,,2013-06-06 04:53:00,